Location: Newark
(7.0858°N, 171.3717°E)
Time: 09:34:53
(UTC+00:00)

S-56A Canister/Altair - Pass Details

Date: 03 December 2020
Orbit: 633 x 2499 km, 38.9° (Epoch: 27 January)

Event Time Altitude Azimuth Distance (km) Brightness Sun altitude
Rises 15:50:30 0° 283° (WNW) 3,005 - -38.2°
Reaches altitude 10° 15:53:37 10° 261° (W) 2,013 - -37.5°
Maximum altitude 15:56:28 17° 221° (SW) 1,615 - -36.9°
Drops below altitude 10° 15:59:23 10° 180° (S) 2,061 - -36.2°
Exits shadow 16:00:14 - 173° (S) 2,303 10.3 -36.0°
Sets 16:02:39 0° 159° (SSE) 3,113 11.2 -35.4°
